TimeCDT,TemperatureF,Dew PointF,Humidity,Sea Level PressureIn,VisibilityMPH,Wind Direction,Wind SpeedMPH,Gust SpeedMPH,PrecipitationIn,Events,Conditions,WindDirDegrees,DateUTC
12:53 AM,70.0,66.0,87,29.99,10.0,Calm,Calm,-,N/A,,Clear,0,2013-08-19 05:53:00
1:53 AM,69.1,66.0,90,29.99,10.0,Calm,Calm,-,N/A,,Clear,0,2013-08-19 06:53:00
2:53 AM,68.0,66.0,93,29.99,9.0,Calm,Calm,-,N/A,,Clear,0,2013-08-19 07:53:00
3:53 AM,66.9,64.9,93,29.99,8.0,Calm,Calm,-,N/A,,Clear,0,2013-08-19 08:53:00
4:53 AM,66.0,64.9,96,30.00,6.0,Calm,Calm,-,N/A,,Clear,0,2013-08-19 09:53:00
5:53 AM,66.0,64.9,96,30.01,7.0,Calm,Calm,-,N/A,,Mostly Cloudy,0,2013-08-19 10:53:00
6:53 AM,66.0,64.9,96,30.02,6.0,Calm,Calm,-,N/A,,Clear,0,2013-08-19 11:53:00
7:53 AM,70.0,68.0,93,30.04,4.0,Calm,Calm,-,N/A,,Scattered Clouds,0,2013-08-19 12:53:00
8:53 AM,79.0,71.1,77,30.05,9.0,ENE,3.5,-,N/A,,Partly Cloudy,70,2013-08-19 13:53:00
9:53 AM,82.9,70.0,65,30.05,10.0,Variable,6.9,-,N/A,,Clear,0,2013-08-19 14:53:00
10:53 AM,86.0,66.0,51,30.06,10.0,SE,5.8,-,N/A,,Clear,140,2013-08-19 15:53:00
11:53 AM,89.1,66.0,46,30.05,10.0,Variable,6.9,-,N/A,,Scattered Clouds,0,2013-08-19 16:53:00
12:53 PM,91.0,64.0,41,30.04,10.0,Variable,3.5,-,N/A,,Partly Cloudy,0,2013-08-19 17:53:00
1:53 PM,91.0,61.0,36,30.01,10.0,Variable,6.9,-,N/A,,Mostly Cloudy,0,2013-08-19 18:53:00
2:53 PM,91.9,61.0,35,29.99,10.0,ESE,8.1,-,N/A,,Mostly Cloudy,120,2013-08-19 19:53:00
3:53 PM,93.0,59.0,32,29.96,10.0,Variable,5.8,-,N/A,,Partly Cloudy,0,2013-08-19 20:53:00
4:53 PM,91.9,57.9,32,29.94,10.0,Variable,3.5,-,N/A,,Mostly Cloudy,0,2013-08-19 21:53:00
5:53 PM,93.0,59.0,32,29.93,10.0,ESE,5.8,-,N/A,,Scattered Clouds,120,2013-08-19 22:53:00
6:53 PM,87.1,63.0,44,29.94,10.0,SE,10.4,-,N/A,,Clear,130,2013-08-19 23:53:00
7:53 PM,84.9,64.9,51,29.94,10.0,Calm,Calm,-,N/A,,Clear,0,2013-08-20 00:53:00
8:53 PM,78.1,64.9,64,29.94,10.0,Calm,Calm,-,N/A,,Clear,0,2013-08-20 01:53:00
9:53 PM,75.0,64.9,71,29.96,10.0,Calm,Calm,-,N/A,,Clear,0,2013-08-20 02:53:00
10:53 PM,73.0,64.9,76,29.97,10.0,Calm,Calm,-,N/A,,Clear,0,2013-08-20 03:53:00
11:53 PM,73.9,69.1,85,29.97,10.0,SE,3.5,-,N/A,,Clear,140,2013-08-20 04:53:00